Location: Eschertshofen
(49.3064°N, 11.5756°E)
Time: 22:40:00
(UTC+00:00)

MOS 1 Rocket - Pass Details

Date: 18 September 2020
Orbit: 614 x 831 km, 97.4° (Epoch: 20 October)

Event Time Altitude Azimuth Distance (km) Brightness Sun altitude
Rises 18:56:28 0° 9° (N) 3,046 6.8 -16.2°
Reaches altitude 10° 18:58:47 10° 5° (N) 2,096 6.0 -16.5°
Maximum altitude 19:03:13 54° 289° (WNW) 780 3.9 -17.2°
Drops below altitude 10° 19:07:26 10° 212° (SSW) 1,994 5.7 -17.8°
Sets 19:09:36 0° 208° (SSW) 2,882 6.5 -18.2°
